Skip Page Navigation
NASA JPL Caltech
NASA Logo - Jet Propulsion Laboratory + View the NASA Portal
+ Near-Earth Object (NEO) Program
Search JPL
JPL Home Earth Solar System Stars & Galaxies Technology
JPL Solar System Dynamics
BODIES ORBITS EPHEMERIDES TOOLS PHYSICAL DATA DISCOVERY FAQ SITE MAP
JPL Small-Body Database Browser
Search: [ help ]  
3827 Zdenekhorsky (1986 VU)
Classification: Main-belt Asteroid          SPK-ID: 2003827
Ephemeris | Orbit Diagram | Orbital Elements | Physical Parameters | Discovery Circumstances ]

[ show orbit diagram ]
Orbital Elements at Epoch 2456400.5 (2013-Apr-18.0) TDB
Reference: MPO240224 (heliocentric ecliptic J2000)
 Element Value Uncertainty (1-sigma)   Units 
e 0.1257385 n/a  
a 2.7412692 n/a AU
q 2.3965861 n/a AU
i 4.09925 n/a deg
node 333.57406 n/a deg
peri 33.29369 n/a deg
M 326.15668 n/a deg
tp 2456556.3462753
(2013-Sep-20.84627530)
n/a JED
period 1657.7764567
4.54
n/a
n/a
d
yr
n 0.21715835 n/a deg/d
Q 3.0859523 n/a AU
  Orbit Determination Parameters
   # obs. used (total)      963  
   first obs. used      1963-??-??  
   last obs. used      2012-09-06  
   # oppositions      17  
   planetary ephem.      DE403  
   condition code      0  
   fit RMS      0.51  
   data source      MPC:mpn  
   producer      MPCLINUX  

Additional Information
 T_jup = 3.335 

Ephemeris | Orbit Diagram | Orbital Elements | Physical Parameters | Discovery Circumstances ]

Physical Parameter Table
Parameter Symbol Value Units Sigma Reference Notes
absolute magnitude H 12.3 mag n/a PDS3 (MPC 28110)  
SMASSII spectral type spec_B C   n/a EAR-A-5-DDR-TAXONOMY-V4.0 based on a high-resolution spectrum by Xu et al. (1995) or Bus and Binzel (2002)

3827 Zdenekhorský           Discovered 1986 Nov. 3 by A. Mrkos at Klet.
Named in memory of Zdenek Horský (1929-1988), outstanding Czech historian of medieval and renaissance astronomy and authority on Kepler. Horský also studied megalithic localities in Bohemia, explained the cosmological architectural symbolism of the gothic Charles Bridge and the New Town of Prague and dated the origin of the famous astronomical clock on the Old Town Hall in Prague. Name suggested by J. Ticha, M. Tichy and Z. Moravec.
NOTE: some special characters may not display properly (any characters within {} are an attempt to place the proper accent above a character)
Reference: 19960828/MPCPages.arcLast Updated: 2003-09-26

Alternate Designations
 1986 VU = 1959 XB = 1963 SJ = 1981 SU5 = 1982 YV 
Ephemeris | Orbit Diagram | Orbital Elements | Physical Parameters | Discovery Circumstances ]
ABOUT SSD CREDITS/AWARDS PRIVACY/COPYRIGHT GLOSSARY LINKS
FirstGov 2013-May-23 18:04 UT
(server date/time)  
NASA Home Page
Site Manager:   Donald K. Yeomans
Webmaster  Alan B. Chamberlin